Syracuse, NY

1:32 AM EST on December 16, 2019 (GMT -0500)
Syracuse Hancock International

Weather History for KSYR - September, 2019

Change the Weather History Date:

Thursday, September 19, 2019

  Actual Average Record
Temperature  
Mean Temperature 59 °F 61 °F  
Max Temperature 73 °F 71 °F 89 °F (1955)
Min Temperature 44 °F 51 °F 34 °F (1943)
Degree Days  
Heating Degree Days 6 5  
Month to date heating degree days 40 59  
Since 1 July heating degree days 45 85  
Cooling Degree Days 0 1  
Month to date cooling degree days 21 44  
Year to date cooling degree days 589 557  
Growing Degree Days 9 (Base 50)    
Moisture  
Dew Point 48 °F    
Average Humidity 70    
Maximum Humidity 93    
Minimum Humidity 41    
Precipitation  
Precipitation 0.00 in 0.12 in 1.77 in (1989)
Month to date precipitation 2.04 2.28  
Year to date precipitation 32.68 26.87  
Snow  
Snow 0.00 in 0.00 in 0.00 in (2002)
Month to date snowfall 0.0 0.0  
Since 1 July snowfall T 0.0  
Since 1 September snowfall 0.0 0.0  
Snow Depth 0.00 in    
Sea Level Pressure  
Sea Level Pressure 30.28 in    
Wind  
Wind Speed 4 mph ()    
Max Wind Speed 9 mph    
Max Gust Speed 12 mph    
Visibility 10.0 miles    
Events      
T = Trace of Precipitation, MM = Missing Value Source: Averaged Metar Reports

Daily Weather History Graph

Daily Weather History Graph

Search for Another Location

Airport or City:

Astronomy

Sep. 19, 2019 Rise Set
Actual Time 6:48 AM EDT 7:07 PM EDT
Civil Twilight 6:19 AM EDT 7:36 PM EDT
Nautical Twilight 5:46 AM EDT 8:09 PM EDT
Astronomical Twilight 5:11 AM EDT 8:43 PM EDT
Moon 10:07 PM EDT (9/19) 11:56 AM EDT (9/19)
Length of Visible Light 13h 16m
Length of Day
12h 19m
Waning Gibbous, 74% of the Moon is Illuminated
Sep 19
Waning Gibbous
Sep 21
Last Quarter
Sep 28
New
Oct 5
First Quarter
Oct 13
Full

Hourly Weather History & Observations

Time (EDT) Temp. Windchill Dew Point Humidity Pressure Visibility Wind Dir Wind Speed Gust Speed Precip Events Conditions
12:54 AM 51.1 °F - 48.9 °F 92% 30.29 in 10.0 mi East 6.9 mph - N/A   Partly Cloudy
1:54 AM 50.0 °F - 48.0 °F 93% 30.30 in 10.0 mi East 6.9 mph - N/A   Partly Cloudy
2:54 AM 50.0 °F - 46.9 °F 89% 30.30 in 10.0 mi ENE 3.5 mph - N/A   Clear
3:54 AM 48.0 °F - 44.1 °F 86% 30.30 in 10.0 mi East 4.6 mph - N/A   Clear
4:54 AM 46.9 °F - 44.1 °F 90% 30.30 in 10.0 mi ESE 6.9 mph - N/A   Partly Cloudy
5:54 AM 46.0 °F 44.8 °F 43.0 °F 89% 30.30 in 10.0 mi ENE 3.5 mph - N/A   Partly Cloudy
6:54 AM 45.0 °F 42.6 °F 42.1 °F 90% 30.32 in 10.0 mi East 4.6 mph - N/A   Partly Cloudy
7:54 AM 46.9 °F - 44.1 °F 90% 30.33 in 10.0 mi East 4.6 mph - N/A   Scattered Clouds
8:54 AM 53.1 °F - 48.0 °F 83% 30.34 in 10.0 mi East 4.6 mph - N/A   Scattered Clouds
9:54 AM 59.0 °F - 48.9 °F 69% 30.33 in 10.0 mi Calm Calm - N/A   Scattered Clouds
10:54 AM 64.0 °F - 50.0 °F 60% 30.32 in 10.0 mi Calm Calm - N/A   Scattered Clouds
11:54 AM 69.1 °F - 50.0 °F 51% 30.32 in 10.0 mi Variable 4.6 mph - N/A   Scattered Clouds
12:54 PM 71.1 °F - 48.0 °F 44% 30.30 in 10.0 mi Calm Calm - N/A   Scattered Clouds
1:54 PM 72.0 °F - 48.0 °F 43% 30.29 in 10.0 mi Variable 4.6 mph - N/A   Mostly Cloudy
2:54 PM 73.9 °F - 48.9 °F 41% 30.27 in 10.0 mi Calm Calm - N/A   Mostly Cloudy
3:54 PM 73.0 °F - 52.0 °F 48% 30.26 in 10.0 mi NE 6.9 mph - N/A   Scattered Clouds
4:54 PM 71.1 °F - 53.1 °F 53% 30.25 in 10.0 mi NE 8.1 mph - N/A   Scattered Clouds
5:54 PM 70.0 °F - 52.0 °F 53% 30.24 in 10.0 mi ENE 5.8 mph - N/A   Scattered Clouds
6:54 PM 64.0 °F - 52.0 °F 65% 30.24 in 10.0 mi NE 5.8 mph - N/A   Partly Cloudy
7:54 PM 62.1 °F - 51.1 °F 67% 30.24 in 10.0 mi ESE 4.6 mph - N/A   Partly Cloudy
8:54 PM 60.1 °F - 51.1 °F 72% 30.25 in 10.0 mi ESE 4.6 mph - N/A   Partly Cloudy
9:54 PM 57.0 °F - 48.9 °F 74% 30.25 in 10.0 mi East 3.5 mph - N/A   Partly Cloudy
10:54 PM 55.9 °F - 46.9 °F 72% 30.24 in 10.0 mi ESE 3.5 mph - N/A   Partly Cloudy
11:54 PM 54.0 °F - 46.9 °F 77% 30.23 in 10.0 mi ESE 3.5 mph - N/A   Scattered Clouds